Orbital Elements at Epoch 2459000.5 (2020-May-31.0) TDB
Reference: JPL 37 (heliocentric ecliptic J2000)
Element | Value | Uncertainty (1-sigma) | Units |
e | .1113307081474 | 3.4391e-08 | |
a | 2.262078476169108 | 7.3525e-09 | au |
q | 2.01023967753221 | 7.8483e-08 | au |
i | 3.787608222026847 | 3.611e-06 | deg |
node | 302.2053699128049 | 5.4723e-05 | deg |
peri | 260.6548875463848 | 5.7501e-05 | deg |
M | 286.7254774087918 | 1.9886e-05 | deg |
tp | 2459253.435871028492 (2021-Feb-07.93587103) | 6.9136e-05 | TDB |
period | 1242.681771920307 3.40 | 6.0587e-06 1.659e-08 | d yr |
n | .2896960494106988 | 1.4124e-09 | deg/d |
Q | 2.513917274806007 | 8.1711e-09 | au |
|
| | Orbit Determination Parameters
Additional Information
|